Location: Montreal
(45.5000°N, 73.5833°W)
Time: 19:53:34
(UTC-05:00)

Envisat - Pass Details

Date: 13 October 2017
Orbit: 764 x 766 km, 98.2° (Epoch: 14 December)

Event Time Altitude Azimuth Distance (km) Brightness Sun altitude
Exits shadow 20:57:05 63° 260° (W) 857 3.3 -29.4°
Drops below altitude 10° 21:02:08 10° 340° (NNW) 2,315 5.9 -30.2°
Sets 21:04:28 0° 344° (NNW) 3,246 6.7 -30.6°
